Regional Weather Roundup
Issued by NWS

Home | Current Version | Previous Version | Text Only | Print | Product List | Glossary Off
Versions: 1 2 3 4 5 6 7 8 9 10 11 12 13 14 15 16 17 18 19 20 21 22 23 24 25 26 27 28 29 30 31 32 33 34 35 36 37 38 39 40 41 42 43 44 45 46 47 48 49 50

000
ASUS43 KLMK 061002
RWRKY
KENTUCKY REGIONAL WEATHER ROUNDUP
NATIONAL WEATHER SERVICE LOUISVILLE KY
600 AM EDT MON JUL 06 2015

NOTE "FAIR" INDICATES FEW OR NO CLOUDS BELOW 12,000 FEET
WITH NO SIGNIFICANT WEATHER AND/OR OBSTRUCTIONS TO VISIBILITY.

KYZ001>023-026-027-061>063-070>075-061100-
WESTERN AND SOUTH CENTRAL KENTUCKY

CITY           SKY/WX    TMP DP  RH WIND       PRES   REMARKS
PADUCAH        PTCLDY    72  70  93 S3        30.06R FOG
HENDERSON      MOCLDY    68  64  88 CALM      30.05R
OWENSBORO      CLEAR     69  68  97 SE3       30.08R
HOPKINSVILLE   CLEAR     70  69  96 SW5       30.09R
BOWLING GREEN  FOG       67  65  93 CALM      30.09R VSB 1/4
GLASGOW        CLEAR     65  65 100 CALM      30.10R FOG
$$

KYZ024-025-028>034-038-045-046-053-061100-
NORTH CENTRAL KENTUCKY

CITY           SKY/WX    TMP DP  RH WIND       PRES   REMARKS
LOUISVILLE/SDF PTCLDY    67  64  90 CALM      30.08R FOG
LOUISVILLE/LOU CLEAR     65  63  93 CALM      30.09R FOG
FORT KNOX      CLEAR     63  61  94 S1        30.07R FOG
$$

KYZ035>037-039>044-047>052-055>060-089>105-061100-
NORTHEAST KENTUCKY

CITY           SKY/WX    TMP DP  RH WIND       PRES   REMARKS
LEXINGTON      PTCLDY    66  64  93 CALM      30.10R
COVINGTON      PTCLDY    62  59  90 CALM      30.09R FOG
FRANKFORT      PTCLDY    62  59  90 CALM      30.09R FOG
$$

KYZ054-064>069-076>088-106>120-061100-
SOUTHEAST KENTUCKY

CITY           SKY/WX    TMP DP  RH WIND       PRES   REMARKS
JACKSON        FOG       66  65  96 CALM      30.10R VSB 1/4
LONDON         CLOUDY    67  64  90 CALM      30.11R FOG
SOMERSET       NOT AVBL
MIDDLESBORO    FOG       64  64 100 CALM      30.13R VSB 1/4
MONTICELLO     FOG       65  65 100 CALM      30.13R VSB<1/4
$$




USA.gov is the U.S. government's official web portal to all federal, state and local government web resources and services.